Location: Gro�sch�nbrunn
(49.5760°N, 11.8868°E)
Time: 16:29:48
(UTC+00:00)

SJ 16-02 - Pass Details

Date: 18 September 2020
Orbit: 606 x 616 km, 75.0° (Epoch: 31 October)

Event Time Altitude Azimuth Distance (km) Brightness Sun altitude
Rises 17:58:17 0° 210° (SSW) 2,854 5.0 -7.2°
Reaches altitude 10° 18:00:32 10° 214° (SW) 1,954 4.2 -7.6°
Maximum altitude 18:04:51 60° 295° (WNW) 696 2.0 -8.3°
Drops below altitude 10° 18:09:11 10° 16° (NNE) 1,967 3.9 -9.0°
Sets 18:11:28 0° 20° (NNE) 2,876 4.7 -9.3°
